Location: Bessat
(45.8735°N, 1.9924°E)
Time: 07:06:18
(UTC+00:00)

Cosmos 1470 Rocket - Pass Details

Date: 11 May 2021
Orbit: 604 x 633 km, 82.5° (Epoch: 15 June)

Event Time Altitude Azimuth Distance (km) Brightness Sun altitude
Rises 20:45:29 0° 352° (N) 2,938 7.9 -13.8°
Reaches altitude 10° 20:47:44 10° 355° (N) 2,027 7.0 -14.1°
Maximum altitude 20:52:14 72° 81° (E) 669 3.6 -14.6°
Enters shadow 20:55:01 23° 161° (SSE) 1,364 4.8 -15.0°
